TimeCDT,TemperatureF,Dew PointF,Humidity,Sea Level PressureIn,VisibilityMPH,Wind Direction,Wind SpeedMPH,Gust SpeedMPH,PrecipitationIn,Events,Conditions,WindDirDegrees,DateUTC
12:15 AM,41.0,26.6,57,30.24,10.0,SSE,8.1,-,N/A,,Clear,150,2013-03-27 05:15:00
12:35 AM,41.0,26.6,57,30.24,10.0,SSE,6.9,-,N/A,,Clear,150,2013-03-27 05:35:00
12:55 AM,41.0,26.6,57,30.24,10.0,SSE,6.9,-,N/A,,Clear,150,2013-03-27 05:55:00
1:15 AM,39.2,28.4,65,30.23,10.0,SE,6.9,-,N/A,,Clear,140,2013-03-27 06:15:00
1:35 AM,41.0,28.4,61,30.23,10.0,SSE,6.9,-,N/A,,Clear,150,2013-03-27 06:35:00
1:55 AM,41.0,28.4,61,30.22,10.0,SSE,6.9,-,N/A,,Clear,150,2013-03-27 06:55:00
2:15 AM,39.2,28.4,65,30.22,10.0,SSE,6.9,-,N/A,,Clear,150,2013-03-27 07:15:00
2:35 AM,41.0,28.4,61,30.22,10.0,SSE,6.9,-,N/A,,Clear,150,2013-03-27 07:35:00
2:55 AM,41.0,28.4,61,30.21,10.0,SSE,8.1,-,N/A,,Clear,150,2013-03-27 07:55:00
3:15 AM,41.0,28.4,61,30.21,10.0,SSE,6.9,-,N/A,,Clear,160,2013-03-27 08:15:00
3:35 AM,41.0,28.4,61,30.20,10.0,SSE,8.1,-,N/A,,Clear,160,2013-03-27 08:35:00
3:55 AM,41.0,28.4,61,30.20,10.0,SSE,8.1,-,N/A,,Clear,160,2013-03-27 08:55:00
4:15 AM,41.0,28.4,61,30.20,10.0,South,9.2,-,N/A,,Clear,170,2013-03-27 09:15:00
4:35 AM,41.0,28.4,61,30.20,10.0,SSE,8.1,-,N/A,,Clear,160,2013-03-27 09:35:00
4:55 AM,41.0,28.4,61,30.20,10.0,SSE,8.1,-,N/A,,Clear,160,2013-03-27 09:55:00
5:15 AM,39.2,28.4,65,30.20,10.0,SSE,8.1,-,N/A,,Clear,160,2013-03-27 10:15:00
5:55 AM,39.2,28.4,65,30.20,10.0,SSE,8.1,-,N/A,,Clear,160,2013-03-27 10:55:00
6:15 AM,39.2,28.4,65,30.19,10.0,SSE,9.2,-,N/A,,Clear,150,2013-03-27 11:15:00
6:35 AM,41.0,28.4,61,30.19,10.0,SSE,11.5,-,N/A,,Clear,150,2013-03-27 11:35:00
6:55 AM,41.0,28.4,61,30.19,10.0,SSE,11.5,17.3,N/A,,Clear,160,2013-03-27 11:55:00
7:15 AM,41.0,28.4,61,30.20,10.0,SSE,10.4,17.3,N/A,,Clear,160,2013-03-27 12:15:00
7:35 AM,41.0,28.4,61,30.21,10.0,SSE,10.4,-,N/A,,Clear,160,2013-03-27 12:35:00
7:55 AM,41.0,28.4,61,30.22,10.0,SSE,10.4,-,N/A,,Clear,160,2013-03-27 12:55:00
8:15 AM,42.8,28.4,57,30.22,10.0,SSE,11.5,-,N/A,,Clear,160,2013-03-27 13:15:00
8:35 AM,44.6,30.2,57,30.22,10.0,SSE,13.8,18.4,N/A,,Clear,160,2013-03-27 13:35:00
8:55 AM,44.6,30.2,57,30.22,10.0,SSE,11.5,18.4,N/A,,Clear,160,2013-03-27 13:55:00
9:15 AM,46.4,30.2,53,30.22,10.0,South,11.5,18.4,N/A,,Clear,170,2013-03-27 14:15:00
9:35 AM,50.0,30.2,47,30.22,10.0,South,16.1,23.0,N/A,,Clear,170,2013-03-27 14:35:00
9:55 AM,53.6,32.0,44,30.21,10.0,South,19.6,26.5,N/A,,Clear,170,2013-03-27 14:55:00
10:15 AM,55.4,30.2,38,30.20,10.0,South,20.7,32.2,N/A,,Clear,180,2013-03-27 15:15:00
10:35 AM,55.4,32.0,41,30.19,7.0,South,17.3,27.6,N/A,,Clear,190,2013-03-27 15:35:00
10:55 AM,59.0,32.0,36,30.19,10.0,South,17.3,28.8,N/A,,Clear,180,2013-03-27 15:55:00
11:15 AM,60.8,32.0,34,30.19,10.0,SSW,25.3,33.4,N/A,,Clear,200,2013-03-27 16:15:00
11:35 AM,60.8,33.8,36,30.17,10.0,South,17.3,32.2,N/A,,Clear,190,2013-03-27 16:35:00
11:55 AM,60.8,33.8,36,30.17,10.0,South,24.2,29.9,N/A,,Clear,190,2013-03-27 16:55:00
12:15 PM,62.6,35.6,37,30.15,7.0,South,23.0,32.2,N/A,,Clear,180,2013-03-27 17:15:00
12:35 PM,62.6,35.6,37,30.15,10.0,South,24.2,32.2,N/A,,Clear,180,2013-03-27 17:35:00
12:55 PM,64.4,35.6,34,30.16,10.0,South,21.9,29.9,N/A,,Clear,190,2013-03-27 17:55:00
1:15 PM,62.6,35.6,37,30.13,10.0,South,19.6,29.9,N/A,,Scattered Clouds,170,2013-03-27 18:15:00
1:35 PM,62.6,35.6,37,30.12,10.0,South,23.0,28.8,N/A,,Scattered Clouds,170,2013-03-27 18:35:00
1:55 PM,64.4,37.4,37,30.12,7.0,South,26.5,35.7,N/A,,Clear,190,2013-03-27 18:55:00
2:15 PM,66.2,37.4,35,30.11,10.0,South,19.6,28.8,N/A,,Clear,190,2013-03-27 19:15:00
2:55 PM,68.0,37.4,33,30.09,10.0,South,16.1,31.1,N/A,,Clear,170,2013-03-27 19:55:00
3:15 PM,69.8,37.4,31,30.08,10.0,North,-9999.0,-,N/A,,Clear,0,2013-03-27 20:15:00
3:35 PM,69.8,39.2,33,30.08,10.0,South,16.1,28.8,N/A,,Clear,190,2013-03-27 20:35:00
3:55 PM,69.8,41.0,35,30.07,10.0,SSE,18.4,23.0,N/A,,Clear,160,2013-03-27 20:55:00
4:15 PM,71.6,41.0,33,30.07,10.0,SSW,15.0,24.2,N/A,,Clear,200,2013-03-27 21:15:00
4:35 PM,71.6,41.0,33,30.07,10.0,South,17.3,26.5,N/A,,Clear,190,2013-03-27 21:35:00
4:55 PM,71.6,41.0,33,30.07,10.0,SSW,17.3,24.2,N/A,,Clear,210,2013-03-27 21:55:00
5:15 PM,71.6,41.0,33,30.06,10.0,SSW,15.0,23.0,N/A,,Clear,200,2013-03-27 22:15:00
5:35 PM,71.6,41.0,33,30.07,10.0,South,13.8,17.3,N/A,,Clear,190,2013-03-27 22:35:00
5:55 PM,69.8,41.0,35,30.07,10.0,SW,12.7,-,N/A,,Clear,220,2013-03-27 22:55:00
6:15 PM,69.8,41.0,35,30.07,10.0,SSW,13.8,19.6,N/A,,Clear,210,2013-03-27 23:15:00
6:35 PM,69.8,41.0,35,30.07,10.0,South,12.7,17.3,N/A,,Clear,180,2013-03-27 23:35:00
6:55 PM,68.0,41.0,37,30.07,7.0,South,11.5,17.3,N/A,,Clear,180,2013-03-27 23:55:00
7:15 PM,68.0,41.0,37,30.08,10.0,South,9.2,-,N/A,,Clear,180,2013-03-28 00:15:00
7:35 PM,64.4,41.0,42,30.08,10.0,South,8.1,-,N/A,,Clear,170,2013-03-28 00:35:00
7:55 PM,62.6,41.0,45,30.08,10.0,SSE,6.9,-,N/A,,Clear,150,2013-03-28 00:55:00
8:15 PM,59.0,41.0,51,30.09,10.0,SSE,6.9,-,N/A,,Clear,150,2013-03-28 01:15:00
8:35 PM,59.0,41.0,51,30.09,10.0,SSE,6.9,-,N/A,,Clear,150,2013-03-28 01:35:00
8:55 PM,59.0,41.0,51,30.10,10.0,SE,6.9,-,N/A,,Clear,140,2013-03-28 01:55:00
9:15 PM,59.0,41.0,51,30.11,10.0,SE,8.1,-,N/A,,Clear,140,2013-03-28 02:15:00
9:35 PM,59.0,41.0,51,30.11,10.0,SE,8.1,-,N/A,,Clear,140,2013-03-28 02:35:00
9:55 PM,57.2,41.0,55,30.12,10.0,SE,8.1,-,N/A,,Clear,140,2013-03-28 02:55:00
10:15 PM,57.2,41.0,55,30.12,10.0,SE,6.9,-,N/A,,Clear,140,2013-03-28 03:15:00
10:35 PM,55.4,41.0,58,30.12,10.0,SSE,8.1,-,N/A,,Clear,150,2013-03-28 03:35:00
10:55 PM,55.4,41.0,58,30.12,10.0,SSE,6.9,-,N/A,,Clear,150,2013-03-28 03:55:00
11:15 PM,55.4,41.0,58,30.13,10.0,SSE,9.2,-,N/A,,Clear,150,2013-03-28 04:15:00
11:35 PM,55.4,41.0,58,30.13,10.0,SE,8.1,-,N/A,,Clear,140,2013-03-28 04:35:00
11:55 PM,55.4,41.0,58,30.13,10.0,SE,6.9,-,N/A,,Clear,140,2013-03-28 04:55:00